{"data":{"norad_id":66675,"intl_designator":"2025-276K","name":"VEERY-0G","alt_names":[],"object_type":"PAYLOAD","status":"ACTIVE","operator":null,"country":"US","launch_date":"2025-11-28","launch_site_code":"AFWTR","launch_vehicle":null,"mission":null,"orbit_class":"UNKNOWN","rcs_meters":null,"size_class":null,"mass_kg":null,"dimensions":null,"purposes":[],"wikipedia_slug":null,"has_3d_model":false,"image_url":null,"decayed_at":null,"tle_current":{"epoch":"2026-05-25T03:20:47.677344Z","epoch_age_seconds":53185,"freshness":"FRESH","line1":"1 66675U 25276K   26145.13944071  .00008637  00000+0  39934-3 0  9993","line2":"2 66675  97.4180 219.0605 0007450  90.2988 269.9101 15.20375705 26928","mean_motion":15.20375705,"eccentricity":0.000745,"inclination_deg":97.418,"raan_deg":219.0605,"arg_perigee_deg":90.2988,"mean_anomaly_deg":269.9101,"bstar":0.00039934,"rev_number":2692,"period_min":94.713431375174,"perigee_km":499.57876718969,"apogee_km":509.83420398322,"semimajor_km":6882.8434855865,"source":"CELESTRAK","updated_at":"2026-05-25T13:38:06.386512Z"}}}